User: anonymous   Login
Location: *
(46.1333°S, 161.2167°W)
Time: 21:26:05
(UTC+00:00)
Language:

BREEZE-M DEB (TANK) - Orbit

View from above orbital plane
View from above orbital plane
View from above satellite
View from above satellite

Ground track
Ground track

The orbit data is extracted from the following two-line orbital elements,

1 31863U 07032B   20269.55799975 -.00000189 +00000-0 -26794-4 0  9990
2 31863 045.9364 356.5532 4968578 009.1546 357.3301 05.52242301265576
Epoch (UTC): 25 September 2020 13:23:31
Eccentricity: 0.4968578
inclination: 45.9364°
perigee height: 424 km
apogee height: 13859 km
right ascension of ascending node: 356.5532°
argument of perigee: 9.1546°
revolutions per day: 5.52242301
mean anomaly at epoch: 357.3301°
orbit number at epoch: 26557

The dashed part of the orbit path shows where the satellite is in the earth's shadow,  

DLR